Time,TemperatureF,DewpointF,PressureIn,WindDirection,WindDirectionDegrees,WindSpeedMPH,WindSpeedGustMPH,Humidity,HourlyPrecipIn,Conditions,Clouds,dailyrainin,SoftwareType,DateUTC
2013-11-07 00:01:00,65.7,58.3,30.04,West,264,6.0,7.0,77,0.00,,,0.00,Wunderground v.1.15,2013-11-07 05:01:00,
2013-11-07 00:02:00,65.7,58.3,30.05,WSW,255,5.0,7.0,77,0.00,,,0.00,Wunderground v.1.15,2013-11-07 05:02:00,
2013-11-07 00:04:00,65.7,58.3,30.05,WSW,257,5.0,7.0,77,0.00,,,0.00,Wunderground v.1.15,2013-11-07 05:04:00,
2013-11-07 00:06:00,65.8,58.4,30.04,WSW,249,4.0,7.0,77,0.00,,,0.00,Wunderground v.1.15,2013-11-07 05:06:00,
2013-11-07 00:08:00,65.8,58.4,30.04,West,262,4.0,7.0,77,0.00,,,0.00,Wunderground v.1.15,2013-11-07 05:08:00,
2013-11-07 00:09:00,65.8,58.4,30.04,West,262,4.0,7.0,77,0.00,,,0.00,Wunderground v.1.15,2013-11-07 05:09:00,
2013-11-07 00:11:00,65.7,58.3,30.04,West,260,4.0,5.0,77,0.00,,,0.00,Wunderground v.1.15,2013-11-07 05:11:00,
2013-11-07 00:16:00,65.8,58.4,30.05,WSW,255,5.0,6.0,77,0.00,,,0.00,Wunderground v.1.15,2013-11-07 05:16:00,
2013-11-07 00:21:00,65.9,58.5,30.04,West,266,4.0,6.0,77,0.00,,,0.00,Wunderground v.1.15,2013-11-07 05:21:00,
2013-11-07 00:26:00,66.0,58.2,30.04,WSW,256,5.0,6.0,76,0.00,,,0.00,Wunderground v.1.15,2013-11-07 05:26:00,
2013-11-07 00:32:00,66.0,58.2,30.04,WSW,248,4.0,9.0,76,0.00,,,0.00,Wunderground v.1.15,2013-11-07 05:32:00,
2013-11-07 00:37:00,66.0,58.6,30.04,West,259,5.0,9.0,77,0.00,,,0.00,Wunderground v.1.15,2013-11-07 05:37:00,
2013-11-07 00:42:00,65.9,58.5,30.03,WSW,248,5.0,8.0,77,0.00,,,0.00,Wunderground v.1.15,2013-11-07 05:42:00,
2013-11-07 00:47:00,65.9,58.8,30.04,West,260,7.0,8.0,78,0.00,,,0.00,Wunderground v.1.15,2013-11-07 05:47:00,
2013-11-07 00:52:00,65.7,59.0,30.03,WSW,254,8.0,8.0,79,0.00,,,0.00,Wunderground v.1.15,2013-11-07 05:52:00,
2013-11-07 00:58:00,65.3,59.0,30.03,WSW,256,5.0,8.0,80,0.00,,,0.00,Wunderground v.1.15,2013-11-07 05:58:00,
2013-11-07 01:03:00,65.1,58.8,30.03,West,262,4.0,6.0,80,0.00,,,0.00,Wunderground v.1.15,2013-11-07 06:03:00,
2013-11-07 01:08:00,64.9,58.9,30.03,WSW,239,3.0,6.0,81,0.00,,,0.00,Wunderground v.1.15,2013-11-07 06:08:00,
2013-11-07 01:13:00,64.9,58.9,30.02,WSW,256,2.0,4.0,81,0.00,,,0.00,Wunderground v.1.15,2013-11-07 06:13:00,
2013-11-07 01:18:00,64.9,58.9,30.02,WSW,255,2.0,6.0,81,0.00,,,0.00,Wunderground v.1.15,2013-11-07 06:18:00,
2013-11-07 01:24:00,64.8,58.8,30.02,WSW,249,3.0,3.0,81,0.00,,,0.00,Wunderground v.1.15,2013-11-07 06:24:00,
2013-11-07 01:29:00,64.7,59.1,30.02,WSW,248,2.0,3.0,82,0.00,,,0.00,Wunderground v.1.15,2013-11-07 06:29:00,
2013-11-07 01:34:00,64.6,58.6,30.02,West,266,3.0,3.0,81,0.00,,,0.00,Wunderground v.1.15,2013-11-07 06:34:00,
2013-11-07 01:39:00,64.7,58.7,30.02,West,262,4.0,4.0,81,0.00,,,0.00,Wunderground v.1.15,2013-11-07 06:39:00,
2013-11-07 01:44:00,64.9,58.9,30.02,West,278,4.0,5.0,81,0.00,,,0.00,Wunderground v.1.15,2013-11-07 06:44:00,
2013-11-07 01:50:00,65.0,59.0,30.02,West,276,4.0,4.0,81,0.00,,,0.00,Wunderground v.1.15,2013-11-07 06:50:00,
2013-11-07 01:55:00,65.0,59.0,30.02,West,275,5.0,5.0,81,0.00,,,0.00,Wunderground v.1.15,2013-11-07 06:55:00,
2013-11-07 02:00:00,64.8,59.2,30.02,West,277,6.0,6.0,82,0.00,,,0.00,Wunderground v.1.15,2013-11-07 07:00:00,
2013-11-07 02:05:00,64.3,59.7,30.02,WNW,287,5.0,10.0,85,0.00,,,0.00,Wunderground v.1.15,2013-11-07 07:05:00,
2013-11-07 02:10:00,63.4,59.5,30.03,NNE,25,8.0,8.0,87,0.00,,,0.00,Wunderground v.1.15,2013-11-07 07:10:00,
2013-11-07 02:15:00,62.5,59.5,30.03,NNE,29,7.0,10.0,90,0.00,,,0.01,Wunderground v.1.15,2013-11-07 07:15:00,
2013-11-07 02:20:00,61.7,59.4,30.04,NW,316,5.0,7.0,92,0.40,,,0.04,Wunderground v.1.15,2013-11-07 07:20:00,
2013-11-07 02:25:00,61.2,59.5,30.03,NW,312,3.0,10.0,94,0.54,,,0.09,Wunderground v.1.15,2013-11-07 07:25:00,
2013-11-07 02:30:00,61.0,59.6,30.03,NW,321,2.0,4.0,95,0.15,,,0.11,Wunderground v.1.15,2013-11-07 07:30:00,
2013-11-07 02:35:00,60.9,59.5,30.03,NW,317,2.0,7.0,95,0.17,,,0.12,Wunderground v.1.15,2013-11-07 07:35:00,
2013-11-07 02:40:00,60.9,59.8,30.03,WNW,297,5.0,5.0,96,0.22,,,0.14,Wunderground v.1.15,2013-11-07 07:40:00,
2013-11-07 02:45:00,60.9,59.8,30.03,NW,311,3.0,8.0,96,0.14,,,0.15,Wunderground v.1.15,2013-11-07 07:45:00,
2013-11-07 02:50:00,60.7,59.8,30.03,WNW,284,4.0,7.0,97,0.14,,,0.16,Wunderground v.1.15,2013-11-07 07:50:00,
2013-11-07 02:55:00,60.5,59.9,30.03,NW,304,7.0,7.0,98,0.12,,,0.17,Wunderground v.1.15,2013-11-07 07:55:00,
2013-11-07 03:00:00,60.5,59.9,30.03,West,276,10.0,11.0,98,0.07,,,0.17,Wunderground v.1.15,2013-11-07 08:00:00,
2013-11-07 03:05:00,60.5,59.9,30.03,West,267,6.0,11.0,98,0.07,,,0.18,Wunderground v.1.15,2013-11-07 08:05:00,
2013-11-07 03:10:00,60.5,59.9,30.03,West,264,4.0,6.0,98,0.06,,,0.18,Wunderground v.1.15,2013-11-07 08:10:00,
2013-11-07 03:15:00,60.5,59.9,30.03,West,270,4.0,7.0,98,0.05,,,0.19,Wunderground v.1.15,2013-11-07 08:15:00,
2013-11-07 03:20:00,60.5,60.2,30.03,West,278,3.0,5.0,99,0.12,,,0.20,Wunderground v.1.15,2013-11-07 08:20:00,
2013-11-07 03:25:00,60.5,60.2,30.02,West,262,2.0,5.0,99,0.13,,,0.21,Wunderground v.1.15,2013-11-07 08:25:00,
2013-11-07 03:30:00,60.5,60.2,30.01,WSW,248,1.0,2.0,99,0.14,,,0.22,Wunderground v.1.15,2013-11-07 08:30:00,
2013-11-07 03:35:00,60.4,60.1,30.01,SW,236,2.0,3.0,99,0.08,,,0.23,Wunderground v.1.15,2013-11-07 08:35:00,
2013-11-07 03:40:00,60.3,60.0,30.00,SW,221,0.0,2.0,99,0.08,,,0.23,Wunderground v.1.15,2013-11-07 08:40:00,
2013-11-07 03:45:00,60.3,60.0,30.01,SW,236,1.0,2.0,99,0.05,,,0.23,Wunderground v.1.15,2013-11-07 08:45:00,
2013-11-07 03:50:00,60.2,59.9,30.00,West,262,0.0,1.0,99,0.04,,,0.23,Wunderground v.1.15,2013-11-07 08:50:00,
2013-11-07 03:55:00,60.1,59.8,30.01,WSW,255,3.0,6.0,99,0.00,,,0.23,Wunderground v.1.15,2013-11-07 08:55:00,
2013-11-07 04:00:00,60.1,59.8,30.01,WSW,248,2.0,3.0,99,0.00,,,0.23,Wunderground v.1.15,2013-11-07 09:00:00,
2013-11-07 04:05:00,60.1,59.8,30.01,SW,233,1.0,4.0,99,0.00,,,0.24,Wunderground v.1.15,2013-11-07 09:05:00,
2013-11-07 04:10:00,60.1,59.8,30.01,WSW,245,2.0,2.0,99,0.00,,,0.24,Wunderground v.1.15,2013-11-07 09:10:00,
2013-11-07 04:15:00,60.1,59.8,30.01,WSW,242,1.0,3.0,99,0.00,,,0.24,Wunderground v.1.15,2013-11-07 09:15:00,
2013-11-07 04:20:00,60.1,59.8,30.01,SW,236,0.0,1.0,99,0.04,,,0.25,Wunderground v.1.15,2013-11-07 09:20:00,
2013-11-07 04:25:00,60.0,59.7,30.01,SW,236,0.0,1.0,99,0.04,,,0.25,Wunderground v.1.15,2013-11-07 09:25:00,
2013-11-07 04:30:00,60.0,59.7,30.01,WSW,237,0.0,0.0,99,0.04,,,0.25,Wunderground v.1.15,2013-11-07 09:30:00,
2013-11-07 04:35:00,60.0,59.7,30.01,WSW,237,1.0,1.0,99,0.04,,,0.26,Wunderground v.1.15,2013-11-07 09:35:00,
2013-11-07 04:40:00,60.0,59.7,30.01,SW,236,0.0,0.0,99,0.04,,,0.26,Wunderground v.1.15,2013-11-07 09:40:00,
2013-11-07 04:45:00,60.0,59.7,30.01,WSW,248,1.0,2.0,99,0.07,,,0.27,Wunderground v.1.15,2013-11-07 09:45:00,
2013-11-07 04:50:00,60.0,59.7,30.01,WSW,245,0.0,1.0,99,0.15,,,0.28,Wunderground v.1.15,2013-11-07 09:50:00,
2013-11-07 04:55:00,60.0,59.7,30.01,WSW,245,0.0,1.0,99,0.08,,,0.29,Wunderground v.1.15,2013-11-07 09:55:00,
2013-11-07 05:00:00,60.0,59.7,30.01,WSW,245,0.0,0.0,99,0.08,,,0.29,Wunderground v.1.15,2013-11-07 10:00:00,
2013-11-07 05:05:00,59.9,59.6,30.01,WSW,245,1.0,1.0,99,0.08,,,0.30,Wunderground v.1.15,2013-11-07 10:05:00,
2013-11-07 05:10:00,59.9,59.6,30.01,WSW,245,0.0,0.0,99,0.07,,,0.30,Wunderground v.1.15,2013-11-07 10:10:00,
2013-11-07 05:15:00,59.9,59.6,30.01,WSW,245,0.0,0.0,99,0.04,,,0.30,Wunderground v.1.15,2013-11-07 10:15:00,
2013-11-07 05:20:00,59.9,59.6,30.01,WSW,245,1.0,1.0,99,0.00,,,0.31,Wunderground v.1.15,2013-11-07 10:20:00,
2013-11-07 05:25:00,59.8,59.5,30.01,WSW,245,0.0,1.0,99,0.00,,,0.31,Wunderground v.1.15,2013-11-07 10:25:00,
2013-11-07 05:30:00,59.8,59.5,30.01,WSW,245,0.0,1.0,99,0.00,,,0.31,Wunderground v.1.15,2013-11-07 10:30:00,
2013-11-07 05:35:00,59.9,59.9,30.02,WSW,245,1.0,1.0,100,0.00,,,0.31,Wunderground v.1.15,2013-11-07 10:35:00,
2013-11-07 05:40:00,59.9,59.9,30.02,WSW,245,0.0,0.0,100,0.00,,,0.31,Wunderground v.1.15,2013-11-07 10:40:00,
2013-11-07 05:45:00,59.9,59.9,30.02,WSW,245,0.0,0.0,100,0.00,,,0.32,Wunderground v.1.15,2013-11-07 10:45:00,
2013-11-07 05:50:00,59.9,59.9,30.02,WSW,245,0.0,0.0,100,0.00,,,0.32,Wunderground v.1.15,2013-11-07 10:50:00,
2013-11-07 05:55:00,58.4,58.1,30.03,NNE,22,18.0,18.0,99,0.19,,,0.33,Wunderground v.1.15,2013-11-07 10:55:00,
2013-11-07 06:00:00,56.1,55.3,30.03,NNW,329,9.0,13.0,97,0.13,,,0.35,Wunderground v.1.15,2013-11-07 11:00:00,
2013-11-07 06:05:00,55.2,54.6,30.04,North,1,10.0,16.0,98,0.12,,,0.36,Wunderground v.1.15,2013-11-07 11:05:00,
2013-11-07 06:10:00,54.7,54.1,30.04,NNE,20,14.0,14.0,98,0.12,,,0.37,Wunderground v.1.15,2013-11-07 11:10:00,
2013-11-07 06:15:00,54.4,54.1,30.05,North,358,11.0,15.0,99,0.10,,,0.37,Wunderground v.1.15,2013-11-07 11:15:00,
2013-11-07 06:20:00,54.1,53.8,30.05,NNE,13,6.0,8.0,99,0.06,,,0.37,Wunderground v.1.15,2013-11-07 11:20:00,
2013-11-07 06:25:00,53.9,53.6,30.05,NNE,25,8.0,11.0,99,0.04,,,0.37,Wunderground v.1.15,2013-11-07 11:25:00,
2013-11-07 06:30:00,53.8,53.5,30.05,NNE,27,7.0,8.0,99,0.00,,,0.37,Wunderground v.1.15,2013-11-07 11:30:00,
2013-11-07 06:34:00,53.7,53.4,30.06,NNE,25,4.0,9.0,99,0.00,,,0.37,Wunderground v.1.15,2013-11-07 11:34:00,
2013-11-07 06:39:00,53.6,53.3,30.06,NE,36,3.0,9.0,99,0.00,,,0.37,Wunderground v.1.15,2013-11-07 11:39:00,
2013-11-07 06:44:00,53.6,53.3,30.06,NE,37,4.0,6.0,99,0.00,,,0.37,Wunderground v.1.15,2013-11-07 11:44:00,
2013-11-07 06:49:00,53.5,53.2,30.06,NE,45,2.0,6.0,99,0.00,,,0.37,Wunderground v.1.15,2013-11-07 11:49:00,
2013-11-07 06:54:00,53.4,53.1,30.07,NE,41,3.0,9.0,99,0.00,,,0.37,Wunderground v.1.15,2013-11-07 11:54:00,
2013-11-07 06:59:00,53.3,53.0,30.07,NNE,25,3.0,9.0,99,0.00,,,0.37,Wunderground v.1.15,2013-11-07 11:59:00,
2013-11-07 07:04:00,53.2,52.9,30.08,NNW,337,3.0,7.0,99,0.00,,,0.38,Wunderground v.1.15,2013-11-07 12:04:00,
2013-11-07 07:09:00,53.2,52.9,30.08,North,358,2.0,7.0,99,0.00,,,0.38,Wunderground v.1.15,2013-11-07 12:09:00,
2013-11-07 07:14:00,52.9,52.6,30.08,NE,37,5.0,8.0,99,0.00,,,0.38,Wunderground v.1.15,2013-11-07 12:14:00,
2013-11-07 07:19:00,52.8,52.5,30.08,NNW,340,3.0,8.0,99,0.00,,,0.38,Wunderground v.1.15,2013-11-07 12:19:00,
2013-11-07 07:24:00,52.6,52.3,30.07,NNE,15,3.0,5.0,99,0.00,,,0.38,Wunderground v.1.15,2013-11-07 12:24:00,
2013-11-07 07:29:00,52.3,52.0,30.08,NNE,12,2.0,6.0,99,0.00,,,0.38,Wunderground v.1.15,2013-11-07 12:29:00,
2013-11-07 07:34:00,52.0,51.7,30.08,NW,323,4.0,7.0,99,0.00,,,0.38,Wunderground v.1.15,2013-11-07 12:34:00,
2013-11-07 07:39:00,51.6,51.3,30.09,NNW,330,3.0,8.0,99,0.00,,,0.38,Wunderground v.1.15,2013-11-07 12:39:00,
2013-11-07 07:44:00,51.4,51.1,30.09,NNE,19,7.0,12.0,99,0.00,,,0.39,Wunderground v.1.15,2013-11-07 12:44:00,
2013-11-07 07:49:00,51.0,50.7,30.10,NNE,16,8.0,12.0,99,0.00,,,0.39,Wunderground v.1.15,2013-11-07 12:49:00,
2013-11-07 07:54:00,50.8,50.5,30.10,North,359,9.0,11.0,99,0.00,,,0.39,Wunderground v.1.15,2013-11-07 12:54:00,
2013-11-07 07:59:00,50.7,50.4,30.10,NNE,16,7.0,11.0,99,0.00,,,0.39,Wunderground v.1.15,2013-11-07 12:59:00,
2013-11-07 08:04:00,50.6,50.3,30.11,NNE,20,9.0,12.0,99,0.00,,,0.39,Wunderground v.1.15,2013-11-07 13:04:00,
2013-11-07 08:09:00,50.6,50.3,30.12,NNE,13,6.0,12.0,99,0.00,,,0.39,Wunderground v.1.15,2013-11-07 13:09:00,
2013-11-07 08:14:00,50.6,50.3,30.12,ENE,65,5.0,8.0,99,0.00,,,0.39,Wunderground v.1.15,2013-11-07 13:14:00,
2013-11-07 08:19:00,50.5,50.2,30.13,NNE,32,4.0,9.0,99,0.00,,,0.39,Wunderground v.1.15,2013-11-07 13:19:00,
2013-11-07 08:24:00,50.4,50.1,30.13,ENE,64,4.0,10.0,99,0.00,,,0.39,Wunderground v.1.15,2013-11-07 13:24:00,
2013-11-07 08:29:00,50.2,49.9,30.13,NNW,345,8.0,12.0,99,0.00,,,0.39,Wunderground v.1.15,2013-11-07 13:29:00,
2013-11-07 08:34:00,50.0,49.7,30.13,NNE,29,12.0,14.0,99,0.00,,,0.39,Wunderground v.1.15,2013-11-07 13:34:00,
2013-11-07 08:39:00,49.7,49.4,30.14,North,11,10.0,14.0,99,0.00,,,0.39,Wunderground v.1.15,2013-11-07 13:39:00,
2013-11-07 08:44:00,49.6,49.3,30.14,NNE,26,13.0,13.0,99,0.00,,,0.39,Wunderground v.1.15,2013-11-07 13:44:00,
2013-11-07 08:49:00,49.4,49.1,30.15,NNE,17,12.0,16.0,99,0.00,,,0.39,Wunderground v.1.15,2013-11-07 13:49:00,
2013-11-07 08:54:00,49.3,49.0,30.15,NNE,19,6.0,14.0,99,0.00,,,0.39,Wunderground v.1.15,2013-11-07 13:54:00,
2013-11-07 08:59:00,49.4,49.1,30.16,NNE,23,6.0,14.0,99,0.00,,,0.39,Wunderground v.1.15,2013-11-07 13:59:00,
2013-11-07 09:04:00,49.4,49.1,30.16,NNE,32,5.0,12.0,99,0.00,,,0.39,Wunderground v.1.15,2013-11-07 14:04:00,
2013-11-07 09:09:00,49.3,49.0,30.16,NNE,21,12.0,15.0,99,0.00,,,0.39,Wunderground v.1.15,2013-11-07 14:09:00,
2013-11-07 09:14:00,49.2,48.9,30.17,North,355,8.0,11.0,99,0.00,,,0.39,Wunderground v.1.15,2013-11-07 14:14:00,
2013-11-07 09:19:00,48.9,48.6,30.17,NE,34,11.0,14.0,99,0.00,,,0.39,Wunderground v.1.15,2013-11-07 14:19:00,
2013-11-07 09:24:00,48.7,48.2,30.17,NNE,14,6.0,16.0,98,0.00,,,0.39,Wunderground v.1.15,2013-11-07 14:24:00,
2013-11-07 09:29:00,48.6,48.1,30.18,NE,37,6.0,16.0,98,0.00,,,0.39,Wunderground v.1.15,2013-11-07 14:29:00,
2013-11-07 09:34:00,48.8,48.5,30.18,NNE,32,11.0,11.0,99,0.00,,,0.39,Wunderground v.1.15,2013-11-07 14:34:00,
2013-11-07 09:39:00,48.7,48.2,30.18,NNE,32,10.0,15.0,98,0.00,,,0.39,Wunderground v.1.15,2013-11-07 14:39:00,
2013-11-07 09:44:00,48.8,48.0,30.19,NNE,20,15.0,19.0,97,0.00,,,0.39,Wunderground v.1.15,2013-11-07 14:44:00,
2013-11-07 09:49:00,49.2,48.1,30.19,NNE,19,8.0,19.0,96,0.00,,,0.39,Wunderground v.1.15,2013-11-07 14:49:00,
2013-11-07 09:54:00,49.6,47.7,30.19,NE,37,8.0,15.0,93,0.00,,,0.39,Wunderground v.1.15,2013-11-07 14:54:00,
2013-11-07 09:59:00,49.9,47.4,30.20,NNW,333,5.0,15.0,91,0.00,,,0.39,Wunderground v.1.15,2013-11-07 14:59:00,
2013-11-07 10:04:00,50.0,46.9,30.20,NE,40,7.0,15.0,89,0.00,,,0.39,Wunderground v.1.15,2013-11-07 15:04:00,
2013-11-07 10:09:00,50.1,46.7,30.20,NE,43,14.0,15.0,88,0.00,,,0.39,Wunderground v.1.15,2013-11-07 15:09:00,
2013-11-07 10:14:00,50.1,46.1,30.21,NNE,23,8.0,17.0,86,0.00,,,0.39,Wunderground v.1.15,2013-11-07 15:14:00,
2013-11-07 10:19:00,50.3,46.6,30.21,NE,34,9.0,17.0,87,0.00,,,0.39,Wunderground v.1.15,2013-11-07 15:19:00,
2013-11-07 10:24:00,50.1,46.7,30.21,NNE,30,5.0,10.0,88,0.00,,,0.39,Wunderground v.1.15,2013-11-07 15:24:00,
2013-11-07 10:29:00,49.9,46.2,30.22,NNE,26,7.0,14.0,87,0.00,,,0.39,Wunderground v.1.15,2013-11-07 15:29:00,
2013-11-07 10:34:00,49.8,45.2,30.22,NE,37,14.0,17.0,84,0.00,,,0.39,Wunderground v.1.15,2013-11-07 15:34:00,
2013-11-07 10:39:00,49.7,45.1,30.22,NNE,29,13.0,17.0,84,0.00,,,0.39,Wunderground v.1.15,2013-11-07 15:39:00,
2013-11-07 10:44:00,49.8,45.2,30.22,NE,34,9.0,15.0,84,0.00,,,0.39,Wunderground v.1.15,2013-11-07 15:44:00,
2013-11-07 10:49:00,49.7,44.7,30.21,NNE,29,15.0,17.0,83,0.00,,,0.39,Wunderground v.1.15,2013-11-07 15:49:00,
2013-11-07 10:54:00,49.9,44.6,30.21,NE,37,14.0,16.0,82,0.00,,,0.39,Wunderground v.1.15,2013-11-07 15:54:00,
2013-11-07 10:59:00,49.9,44.0,30.21,NE,41,14.0,17.0,80,0.00,,,0.39,Wunderground v.1.15,2013-11-07 15:59:00,
2013-11-07 11:04:00,49.8,43.9,30.22,NE,41,9.0,16.0,80,0.00,,,0.39,Wunderground v.1.15,2013-11-07 16:04:00,
2013-11-07 11:09:00,49.8,43.9,30.22,NE,39,10.0,17.0,80,0.00,,,0.39,Wunderground v.1.15,2013-11-07 16:09:00,
2013-11-07 11:14:00,49.8,43.9,30.21,NE,49,12.0,14.0,80,0.00,,,0.39,Wunderground v.1.15,2013-11-07 16:14:00,
2013-11-07 11:19:00,49.8,43.2,30.22,NE,40,14.0,20.0,78,0.00,,,0.39,Wunderground v.1.15,2013-11-07 16:19:00,
2013-11-07 11:24:00,49.8,43.5,30.22,NE,47,11.0,18.0,79,0.00,,,0.39,Wunderground v.1.15,2013-11-07 16:24:00,
2013-11-07 11:29:00,49.8,43.2,30.22,NE,47,10.0,18.0,78,0.00,,,0.39,Wunderground v.1.15,2013-11-07 16:29:00,
2013-11-07 11:34:00,49.7,43.5,30.22,NE,40,8.0,14.0,79,0.00,,,0.39,Wunderground v.1.15,2013-11-07 16:34:00,
2013-11-07 11:39:00,49.8,43.5,30.22,NE,39,14.0,16.0,79,0.00,,,0.39,Wunderground v.1.15,2013-11-07 16:39:00,
2013-11-07 11:44:00,49.9,42.6,30.22,NE,53,14.0,17.0,76,0.00,,,0.39,Wunderground v.1.15,2013-11-07 16:44:00,
2013-11-07 11:49:00,50.1,42.8,30.22,NE,49,7.0,17.0,76,0.00,,,0.39,Wunderground v.1.15,2013-11-07 16:49:00,
2013-11-07 11:54:00,49.9,42.6,30.22,NE,45,6.0,14.0,76,0.00,,,0.39,Wunderground v.1.15,2013-11-07 16:54:00,
2013-11-07 11:59:00,50.1,42.5,30.22,NE,46,13.0,15.0,75,0.00,,,0.39,Wunderground v.1.15,2013-11-07 16:59:00,
2013-11-07 12:04:00,49.9,42.3,30.22,NE,49,11.0,17.0,75,0.00,,,0.39,Wunderground v.1.15,2013-11-07 17:04:00,
2013-11-07 12:09:00,49.9,41.6,30.22,NNE,32,11.0,17.0,73,0.00,,,0.39,Wunderground v.1.15,2013-11-07 17:09:00,
2013-11-07 12:14:00,50.1,41.4,30.22,NE,34,11.0,14.0,72,0.00,,,0.39,Wunderground v.1.15,2013-11-07 17:14:00,
2013-11-07 12:19:00,50.3,41.3,30.22,NNE,20,7.0,14.0,71,0.00,,,0.39,Wunderground v.1.15,2013-11-07 17:19:00,
2013-11-07 12:24:00,50.5,41.4,30.21,NNE,19,13.0,17.0,71,0.00,,,0.39,Wunderground v.1.15,2013-11-07 17:24:00,
2013-11-07 12:29:00,50.6,41.5,30.21,NE,44,8.0,17.0,71,0.00,,,0.39,Wunderground v.1.15,2013-11-07 17:29:00,
2013-11-07 12:34:00,50.8,41.4,30.21,NNE,29,16.0,17.0,70,0.00,,,0.39,Wunderground v.1.15,2013-11-07 17:34:00,
2013-11-07 12:40:00,51.0,41.6,30.21,NE,44,7.0,17.0,70,0.00,,,0.39,Wunderground v.1.15,2013-11-07 17:40:00,
2013-11-07 12:45:00,51.3,41.5,30.20,NE,40,12.0,15.0,69,0.00,,,0.39,Wunderground v.1.15,2013-11-07 17:45:00,
2013-11-07 12:50:00,51.2,41.4,30.20,ENE,57,5.0,16.0,69,0.00,,,0.39,Wunderground v.1.15,2013-11-07 17:50:00,
2013-11-07 12:55:00,51.6,41.4,30.20,ENE,57,6.0,16.0,68,0.00,,,0.39,Wunderground v.1.15,2013-11-07 17:55:00,
2013-11-07 12:58:00,51.7,41.5,30.20,ENE,60,7.0,16.0,68,0.00,,,0.39,Wunderground v.1.15,2013-11-07 17:58:00,
2013-11-07 13:03:00,51.8,41.6,30.19,NE,37,8.0,14.0,68,0.00,,,0.39,Wunderground v.1.15,2013-11-07 18:03:00,
2013-11-07 13:08:00,52.2,41.6,30.19,NE,34,12.0,15.0,67,0.00,,,0.39,Wunderground v.1.15,2013-11-07 18:08:00,
2013-11-07 13:13:00,52.4,41.8,30.19,NE,53,8.0,15.0,67,0.00,,,0.39,Wunderground v.1.15,2013-11-07 18:13:00,
2013-11-07 13:18:00,52.5,41.9,30.18,ENE,63,12.0,15.0,67,0.00,,,0.39,Wunderground v.1.15,2013-11-07 18:18:00,
2013-11-07 13:23:00,52.3,40.9,30.19,ENE,57,5.0,12.0,65,0.00,,,0.39,Wunderground v.1.15,2013-11-07 18:23:00,
2013-11-07 13:28:00,52.6,41.6,30.18,ENE,57,3.0,12.0,66,0.00,,,0.39,Wunderground v.1.15,2013-11-07 18:28:00,
2013-11-07 13:33:00,53.2,40.9,30.18,ENE,71,5.0,12.0,63,0.00,,,0.39,Wunderground v.1.15,2013-11-07 18:33:00,
2013-11-07 13:38:00,53.4,40.7,30.18,NE,45,10.0,16.0,62,0.00,,,0.39,Wunderground v.1.15,2013-11-07 18:38:00,
2013-11-07 13:43:00,53.6,40.9,30.18,NNE,31,8.0,12.0,62,0.00,,,0.39,Wunderground v.1.15,2013-11-07 18:43:00,
2013-11-07 13:48:00,53.8,39.8,30.18,NE,36,8.0,12.0,59,0.00,,,0.39,Wunderground v.1.15,2013-11-07 18:48:00,
2013-11-07 13:53:00,54.3,40.7,30.18,NNE,23,7.0,11.0,60,0.00,,,0.39,Wunderground v.1.15,2013-11-07 18:53:00,
2013-11-07 13:58:00,54.5,40.5,30.18,ENE,66,6.0,14.0,59,0.00,,,0.39,Wunderground v.1.15,2013-11-07 18:58:00,
2013-11-07 14:03:00,54.5,40.5,30.18,North,8,12.0,15.0,59,0.00,,,0.39,Wunderground v.1.15,2013-11-07 19:03:00,
2013-11-07 14:08:00,54.5,39.6,30.18,ENE,60,9.0,17.0,57,0.00,,,0.39,Wunderground v.1.15,2013-11-07 19:08:00,
2013-11-07 14:13:00,54.5,40.0,30.18,NE,40,5.0,16.0,58,0.00,,,0.39,Wunderground v.1.15,2013-11-07 19:13:00,
2013-11-07 14:18:00,54.8,39.8,30.17,NE,44,7.0,16.0,57,0.00,,,0.39,Wunderground v.1.15,2013-11-07 19:18:00,
2013-11-07 14:23:00,55.3,40.3,30.18,NE,39,9.0,9.0,57,0.00,,,0.39,Wunderground v.1.15,2013-11-07 19:23:00,
2013-11-07 14:28:00,55.0,39.6,30.18,NE,49,3.0,14.0,56,0.00,,,0.39,Wunderground v.1.15,2013-11-07 19:28:00,
2013-11-07 14:33:00,55.5,39.6,30.18,ENE,77,8.0,13.0,55,0.00,,,0.39,Wunderground v.1.15,2013-11-07 19:33:00,
2013-11-07 14:38:00,55.5,38.6,30.17,ENE,77,8.0,16.0,53,0.00,,,0.39,Wunderground v.1.15,2013-11-07 19:38:00,
2013-11-07 14:43:00,55.8,39.4,30.17,NE,34,6.0,12.0,54,0.00,,,0.39,Wunderground v.1.15,2013-11-07 19:43:00,
2013-11-07 14:48:00,55.8,38.9,30.17,ENE,62,9.0,12.0,53,0.00,,,0.39,Wunderground v.1.15,2013-11-07 19:48:00,
2013-11-07 14:53:00,55.6,39.2,30.17,NE,37,7.0,8.0,54,0.00,,,0.39,Wunderground v.1.15,2013-11-07 19:53:00,
2013-11-07 14:58:00,56.1,39.2,30.17,NNE,20,13.0,14.0,53,0.00,,,0.39,Wunderground v.1.15,2013-11-07 19:58:00,
2013-11-07 15:03:00,56.0,38.6,30.16,NE,39,4.0,11.0,52,0.00,,,0.39,Wunderground v.1.15,2013-11-07 20:03:00,
2013-11-07 15:08:00,56.2,39.3,30.16,ENE,57,9.0,11.0,53,0.00,,,0.39,Wunderground v.1.15,2013-11-07 20:08:00,
2013-11-07 15:13:00,56.3,39.4,30.16,NE,53,5.0,8.0,53,0.00,,,0.39,Wunderground v.1.15,2013-11-07 20:13:00,
2013-11-07 15:18:00,56.5,38.1,30.16,NE,47,6.0,13.0,50,0.00,,,0.39,Wunderground v.1.15,2013-11-07 20:18:00,
2013-11-07 15:23:00,56.7,38.3,30.16,NE,53,2.0,12.0,50,0.00,,,0.39,Wunderground v.1.15,2013-11-07 20:23:00,
2013-11-07 15:28:00,57.0,38.0,30.16,ENE,73,4.0,12.0,49,0.00,,,0.39,Wunderground v.1.15,2013-11-07 20:28:00,
2013-11-07 15:33:00,56.8,37.3,30.16,ENE,57,7.0,16.0,48,0.00,,,0.39,Wunderground v.1.15,2013-11-07 20:33:00,
2013-11-07 15:38:00,56.7,37.2,30.16,NE,37,11.0,16.0,48,0.00,,,0.39,Wunderground v.1.15,2013-11-07 20:38:00,
2013-11-07 15:43:00,56.7,37.7,30.16,ENE,57,6.0,13.0,49,0.00,,,0.39,Wunderground v.1.15,2013-11-07 20:43:00,
2013-11-07 15:48:00,56.8,36.8,30.16,NE,51,8.0,14.0,47,0.00,,,0.39,Wunderground v.1.15,2013-11-07 20:48:00,
2013-11-07 15:53:00,56.9,36.9,30.17,NE,44,6.0,11.0,47,0.00,,,0.39,Wunderground v.1.15,2013-11-07 20:53:00,
2013-11-07 15:58:00,56.9,35.8,30.17,ENE,65,4.0,12.0,45,0.00,,,0.39,Wunderground v.1.15,2013-11-07 20:58:00,
2013-11-07 16:03:00,57.1,34.8,30.17,NE,56,12.0,13.0,43,0.00,,,0.39,Wunderground v.1.15,2013-11-07 21:03:00,
2013-11-07 16:08:00,56.8,35.7,30.17,NE,53,6.0,16.0,45,0.00,,,0.39,Wunderground v.1.15,2013-11-07 21:08:00,
2013-11-07 16:13:00,56.8,35.1,30.17,NE,53,16.0,16.0,44,0.00,,,0.39,Wunderground v.1.15,2013-11-07 21:13:00,
2013-11-07 16:18:00,56.6,34.9,30.17,NE,56,8.0,16.0,44,0.00,,,0.39,Wunderground v.1.15,2013-11-07 21:18:00,
2013-11-07 16:23:00,56.7,35.0,30.17,ENE,77,6.0,15.0,44,0.00,,,0.39,Wunderground v.1.15,2013-11-07 21:23:00,
2013-11-07 16:28:00,56.4,33.6,30.17,NE,47,9.0,15.0,42,0.00,,,0.39,Wunderground v.1.15,2013-11-07 21:28:00,
2013-11-07 16:33:00,56.1,33.9,30.17,NE,45,10.0,16.0,43,0.00,,,0.39,Wunderground v.1.15,2013-11-07 21:33:00,
2013-11-07 16:38:00,56.1,35.0,30.17,NE,47,8.0,16.0,45,0.00,,,0.39,Wunderground v.1.15,2013-11-07 21:38:00,
2013-11-07 16:43:00,56.1,35.0,30.17,NE,38,10.0,11.0,45,0.00,,,0.39,Wunderground v.1.15,2013-11-07 21:43:00,
2013-11-07 16:48:00,56.3,35.2,30.17,NE,34,5.0,11.0,45,0.00,,,0.39,Wunderground v.1.15,2013-11-07 21:48:00,
2013-11-07 16:53:00,56.3,35.2,30.17,NE,41,6.0,10.0,45,0.00,,,0.39,Wunderground v.1.15,2013-11-07 21:53:00,
2013-11-07 16:58:00,56.0,34.4,30.17,NE,45,10.0,11.0,44,0.00,,,0.39,Wunderground v.1.15,2013-11-07 21:58:00,
2013-11-07 17:03:00,55.7,34.7,30.17,ENE,59,5.0,9.0,45,0.00,,,0.39,Wunderground v.1.15,2013-11-07 22:03:00,
2013-11-07 17:08:00,55.3,34.9,30.17,NE,43,8.0,10.0,46,0.00,,,0.39,Wunderground v.1.15,2013-11-07 22:08:00,
2013-11-07 17:13:00,55.1,34.7,30.17,NE,44,9.0,10.0,46,0.00,,,0.39,Wunderground v.1.15,2013-11-07 22:13:00,
2013-11-07 17:18:00,54.9,35.0,30.18,NE,34,8.0,10.0,47,0.00,,,0.39,Wunderground v.1.15,2013-11-07 22:18:00,
2013-11-07 17:23:00,54.6,34.8,30.18,NE,53,5.0,10.0,47,0.00,,,0.39,Wunderground v.1.15,2013-11-07 22:23:00,
2013-11-07 17:28:00,54.3,34.5,30.18,NE,45,7.0,11.0,47,0.00,,,0.39,Wunderground v.1.15,2013-11-07 22:28:00,
2013-11-07 17:33:00,54.0,34.7,30.19,NE,47,3.0,10.0,48,0.00,,,0.39,Wunderground v.1.15,2013-11-07 22:33:00,
2013-11-07 17:38:00,53.7,35.0,30.19,NE,46,6.0,10.0,49,0.00,,,0.39,Wunderground v.1.15,2013-11-07 22:38:00,
2013-11-07 17:43:00,53.5,34.3,30.19,ENE,60,4.0,10.0,48,0.00,,,0.39,Wunderground v.1.15,2013-11-07 22:43:00,
2013-11-07 17:48:00,53.3,34.6,30.19,NE,47,7.0,10.0,49,0.00,,,0.39,Wunderground v.1.15,2013-11-07 22:48:00,
2013-11-07 17:53:00,53.1,34.4,30.19,NE,38,6.0,9.0,49,0.00,,,0.39,Wunderground v.1.15,2013-11-07 22:53:00,
2013-11-07 17:58:00,52.9,34.8,30.19,NE,44,4.0,9.0,50,0.00,,,0.39,Wunderground v.1.15,2013-11-07 22:58:00,
2013-11-07 18:03:00,52.6,34.5,30.19,NE,44,4.0,8.0,50,0.00,,,0.39,Wunderground v.1.15,2013-11-07 23:03:00,
2013-11-07 18:08:00,52.4,34.8,30.19,NE,40,6.0,8.0,51,0.00,,,0.39,Wunderground v.1.15,2013-11-07 23:08:00,
2013-11-07 18:13:00,52.0,34.4,30.20,NE,49,5.0,7.0,51,0.00,,,0.39,Wunderground v.1.15,2013-11-07 23:13:00,
2013-11-07 18:18:00,51.7,34.6,30.20,NE,37,5.0,7.0,52,0.00,,,0.39,Wunderground v.1.15,2013-11-07 23:18:00,
2013-11-07 18:23:00,51.4,35.3,30.20,NNE,26,5.0,5.0,54,0.00,,,0.39,Wunderground v.1.15,2013-11-07 23:23:00,
2013-11-07 18:28:00,50.8,35.7,30.20,NE,34,3.0,5.0,56,0.00,,,0.39,Wunderground v.1.15,2013-11-07 23:28:00,
2013-11-07 18:33:00,50.2,35.5,30.20,NE,47,2.0,5.0,57,0.00,,,0.39,Wunderground v.1.15,2013-11-07 23:33:00,
2013-11-07 18:38:00,50.1,35.0,30.21,ENE,60,2.0,5.0,56,0.00,,,0.39,Wunderground v.1.15,2013-11-07 23:38:00,
2013-11-07 18:43:00,50.1,35.0,30.21,NE,49,1.0,3.0,56,0.00,,,0.39,Wunderground v.1.15,2013-11-07 23:43:00,
2013-11-07 18:48:00,50.0,34.9,30.21,NE,37,4.0,5.0,56,0.00,,,0.39,Wunderground v.1.15,2013-11-07 23:48:00,
2013-11-07 18:53:00,49.8,35.6,30.22,NE,34,3.0,4.0,58,0.00,,,0.39,Wunderground v.1.15,2013-11-07 23:53:00,
2013-11-07 18:58:00,49.6,35.8,30.22,NE,44,3.0,4.0,59,0.00,,,0.39,Wunderground v.1.15,2013-11-07 23:58:00,
2013-11-07 19:03:00,49.3,35.6,30.22,NE,51,5.0,5.0,59,0.00,,,0.39,Wunderground v.1.15,2013-11-08 00:03:00,
2013-11-07 19:08:00,48.9,35.6,30.22,NE,34,4.0,6.0,60,0.00,,,0.39,Wunderground v.1.15,2013-11-08 00:08:00,
2013-11-07 19:13:00,48.6,36.2,30.22,NE,34,4.0,5.0,62,0.00,,,0.39,Wunderground v.1.15,2013-11-08 00:13:00,
2013-11-07 19:18:00,48.2,36.6,30.22,NE,40,4.0,6.0,64,0.00,,,0.39,Wunderground v.1.15,2013-11-08 00:18:00,
2013-11-07 19:23:00,48.0,36.4,30.22,NE,42,5.0,6.0,64,0.00,,,0.39,Wunderground v.1.15,2013-11-08 00:23:00,
2013-11-07 19:28:00,47.8,36.6,30.22,NE,37,4.0,6.0,65,0.00,,,0.39,Wunderground v.1.15,2013-11-08 00:28:00,
2013-11-07 19:33:00,47.5,36.3,30.22,NNE,32,6.0,7.0,65,0.00,,,0.39,Wunderground v.1.15,2013-11-08 00:33:00,
2013-11-07 19:38:00,47.7,35.7,30.22,NE,37,7.0,9.0,63,0.00,,,0.39,Wunderground v.1.15,2013-11-08 00:38:00,
2013-11-07 19:43:00,47.9,35.9,30.22,NE,44,5.0,9.0,63,0.00,,,0.39,Wunderground v.1.15,2013-11-08 00:43:00,
2013-11-07 19:48:00,48.2,35.8,30.22,NE,44,5.0,10.0,62,0.00,,,0.39,Wunderground v.1.15,2013-11-08 00:48:00,
2013-11-07 19:53:00,48.4,35.6,30.22,NE,44,7.0,11.0,61,0.00,,,0.39,Wunderground v.1.15,2013-11-08 00:53:00,
2013-11-07 19:58:00,48.4,35.1,30.22,ENE,57,8.0,11.0,60,0.00,,,0.39,Wunderground v.1.15,2013-11-08 00:58:00,
2013-11-07 20:03:00,48.4,35.1,30.23,NE,36,7.0,10.0,60,0.00,,,0.39,Wunderground v.1.15,2013-11-08 01:03:00,
2013-11-07 20:08:00,48.3,35.0,30.23,NE,41,10.0,10.0,60,0.00,,,0.39,Wunderground v.1.15,2013-11-08 01:08:00,
2013-11-07 20:13:00,48.2,35.0,30.23,NE,41,7.0,11.0,60,0.00,,,0.39,Wunderground v.1.15,2013-11-08 01:13:00,
2013-11-07 20:18:00,48.1,34.9,30.23,NE,44,6.0,12.0,60,0.00,,,0.39,Wunderground v.1.15,2013-11-08 01:18:00,
2013-11-07 20:23:00,48.0,34.8,30.23,NE,41,7.0,8.0,60,0.00,,,0.39,Wunderground v.1.15,2013-11-08 01:23:00,
2013-11-07 20:28:00,47.9,35.1,30.23,NE,45,7.0,11.0,61,0.00,,,0.39,Wunderground v.1.15,2013-11-08 01:28:00,
2013-11-07 20:33:00,47.8,34.6,30.23,NE,39,8.0,10.0,60,0.00,,,0.39,Wunderground v.1.15,2013-11-08 01:33:00,
2013-11-07 20:38:00,47.7,34.9,30.24,NNE,23,5.0,10.0,61,0.00,,,0.39,Wunderground v.1.15,2013-11-08 01:38:00,
2013-11-07 20:43:00,47.4,35.0,30.24,NE,34,5.0,8.0,62,0.00,,,0.39,Wunderground v.1.15,2013-11-08 01:43:00,
2013-11-07 20:48:00,47.2,34.8,30.24,NE,40,9.0,9.0,62,0.00,,,0.39,Wunderground v.1.15,2013-11-08 01:48:00,
2013-11-07 20:53:00,47.1,34.7,30.24,NE,44,5.0,7.0,62,0.00,,,0.39,Wunderground v.1.15,2013-11-08 01:53:00,
2013-11-07 20:58:00,47.0,34.6,30.24,NE,43,7.0,8.0,62,0.00,,,0.39,Wunderground v.1.15,2013-11-08 01:58:00,
2013-11-07 21:03:00,46.8,34.5,30.24,NE,53,4.0,8.0,62,0.00,,,0.39,Wunderground v.1.15,2013-11-08 02:03:00,
2013-11-07 21:08:00,46.6,34.7,30.24,NE,44,4.0,8.0,63,0.00,,,0.39,Wunderground v.1.15,2013-11-08 02:08:00,
2013-11-07 21:13:00,46.4,34.5,30.25,NE,45,4.0,7.0,63,0.00,,,0.39,Wunderground v.1.15,2013-11-08 02:13:00,
2013-11-07 21:18:00,46.3,34.8,30.25,NE,53,6.0,7.0,64,0.00,,,0.39,Wunderground v.1.15,2013-11-08 02:18:00,
2013-11-07 21:23:00,46.1,34.6,30.25,ENE,63,3.0,7.0,64,0.00,,,0.39,Wunderground v.1.15,2013-11-08 02:23:00,
2013-11-07 21:28:00,45.9,34.4,30.25,NE,44,3.0,7.0,64,0.00,,,0.39,Wunderground v.1.15,2013-11-08 02:28:00,
2013-11-07 21:33:00,45.7,34.6,30.25,NE,46,5.0,6.0,65,0.00,,,0.39,Wunderground v.1.15,2013-11-08 02:33:00,
2013-11-07 21:38:00,45.6,34.5,30.25,NE,50,3.0,7.0,65,0.00,,,0.39,Wunderground v.1.15,2013-11-08 02:38:00,
2013-11-07 21:43:00,45.5,34.8,30.25,NE,51,4.0,7.0,66,0.00,,,0.39,Wunderground v.1.15,2013-11-08 02:43:00,
2013-11-07 21:48:00,45.3,34.6,30.26,NE,45,4.0,7.0,66,0.00,,,0.39,Wunderground v.1.15,2013-11-08 02:48:00,
2013-11-07 21:53:00,45.2,34.5,30.25,NE,46,6.0,7.0,66,0.00,,,0.39,Wunderground v.1.15,2013-11-08 02:53:00,
2013-11-07 21:58:00,45.2,34.5,30.25,ENE,57,3.0,7.0,66,0.00,,,0.39,Wunderground v.1.15,2013-11-08 02:58:00,
2013-11-07 22:03:00,45.1,34.4,30.26,NE,51,5.0,8.0,66,0.00,,,0.39,Wunderground v.1.15,2013-11-08 03:03:00,
2013-11-07 22:08:00,45.0,34.3,30.26,NE,45,4.0,8.0,66,0.00,,,0.39,Wunderground v.1.15,2013-11-08 03:08:00,
2013-11-07 22:13:00,44.9,34.2,30.26,NNE,29,4.0,6.0,66,0.00,,,0.39,Wunderground v.1.15,2013-11-08 03:13:00,
2013-11-07 22:18:00,44.8,34.5,30.26,NE,42,4.0,7.0,67,0.00,,,0.39,Wunderground v.1.15,2013-11-08 03:18:00,
2013-11-07 22:23:00,44.7,34.4,30.26,NE,53,3.0,5.0,67,0.00,,,0.39,Wunderground v.1.15,2013-11-08 03:23:00,
2013-11-07 22:28:00,44.5,34.2,30.26,NE,50,4.0,6.0,67,0.00,,,0.39,Wunderground v.1.15,2013-11-08 03:28:00,
2013-11-07 22:33:00,44.4,34.5,30.26,NE,46,4.0,6.0,68,0.00,,,0.39,Wunderground v.1.15,2013-11-08 03:33:00,
2013-11-07 22:38:00,44.3,34.4,30.26,NE,49,3.0,6.0,68,0.00,,,0.39,Wunderground v.1.15,2013-11-08 03:38:00,
2013-11-07 22:43:00,44.1,34.6,30.26,NE,38,4.0,5.0,69,0.00,,,0.39,Wunderground v.1.15,2013-11-08 03:43:00,
2013-11-07 22:48:00,43.8,34.6,30.26,NE,34,4.0,5.0,70,0.00,,,0.39,Wunderground v.1.15,2013-11-08 03:48:00,
2013-11-07 22:53:00,43.6,35.2,30.27,NNE,33,3.0,4.0,72,0.00,,,0.39,Wunderground v.1.15,2013-11-08 03:53:00,
2013-11-07 22:58:00,43.3,35.2,30.26,NE,44,4.0,4.0,73,0.00,,,0.39,Wunderground v.1.15,2013-11-08 03:58:00,
2013-11-07 23:03:00,43.2,34.4,30.27,NE,39,4.0,6.0,71,0.00,,,0.39,Wunderground v.1.15,2013-11-08 04:03:00,
2013-11-07 23:08:00,43.2,34.4,30.27,NE,43,5.0,6.0,71,0.00,,,0.39,Wunderground v.1.15,2013-11-08 04:08:00,
2013-11-07 23:13:00,43.2,34.4,30.27,NE,40,4.0,6.0,71,0.00,,,0.39,Wunderground v.1.15,2013-11-08 04:13:00,
2013-11-07 23:18:00,43.4,34.3,30.27,NE,37,6.0,7.0,70,0.00,,,0.39,Wunderground v.1.15,2013-11-08 04:18:00,
2013-11-07 23:23:00,43.5,34.4,30.27,ENE,57,4.0,5.0,70,0.00,,,0.39,Wunderground v.1.15,2013-11-08 04:23:00,
2013-11-07 23:28:00,43.6,34.5,30.27,NE,44,2.0,5.0,70,0.00,,,0.39,Wunderground v.1.15,2013-11-08 04:28:00,
2013-11-07 23:33:00,43.6,34.1,30.27,ENE,60,2.0,5.0,69,0.00,,,0.39,Wunderground v.1.15,2013-11-08 04:33:00,
2013-11-07 23:38:00,43.6,34.5,30.27,NE,39,4.0,7.0,70,0.00,,,0.39,Wunderground v.1.15,2013-11-08 04:38:00,
2013-11-07 23:43:00,43.5,34.4,30.28,NE,39,4.0,6.0,70,0.00,,,0.39,Wunderground v.1.15,2013-11-08 04:43:00,
2013-11-07 23:48:00,43.3,34.2,30.28,NE,37,4.0,6.0,70,0.00,,,0.39,Wunderground v.1.15,2013-11-08 04:48:00,
2013-11-07 23:53:00,43.2,34.1,30.28,NE,49,4.0,5.0,70,0.00,,,0.39,Wunderground v.1.15,2013-11-08 04:53:00,
2013-11-07 23:58:00,43.1,34.3,30.28,NE,37,5.0,5.0,71,0.00,,,0.39,Wunderground v.1.15,2013-11-08 04:58:00,